Wind_Speed
6 9 7 10 17 21 24 24 23 23 26 35 38 35 29 28 37 43 44 43 42 42 42 42 43 44 45 45 45 45 45 45 45 44 43 43 43 43 43 44 45 46 47 47
2 6 12 15 15 15 16 20 23 22 24 32 32 29 26 27 31 37 39 39 39 38 38 39 39 39 40 41 41 41 42 42 42 42 42 42 42 42 43 44 45 46 47 47
6 10 12 11 13 13 13 13 17 21 25 26 27 27 24 24 29 36 38 38 37 37 38 38 39 39 39 40 40 40 40 41 42 42 42 42 43 43 43 44 45 46 47 49
11 16 15 14 14 15 15 18 23 25 26 26 25 27 23 22 30 37 41 40 36 36 37 38 39 39 40 40 40 40 41 41 42 43 43 44 44 44 45 46 48 48 49 50
9 15 16 15 16 19 20 23 25 25 26 26 23 25 23 18 25 33 39 39 37 36 36 36 36 37 37 38 39 39 40 41 42 43 44 45 46 47 47 48 50 50 51 51
11 15 16 15 17 19 20 21 22 21 20 20 18 20 19 19 26 32 38 41 41 39 37 35 34 34 35 36 37 38 38 40 41 43 44 46 47 48 49 50 51 52 52 52
9 9 12 14 13 15 16 16 15 12 10 15 18 21 19 22 27 31 36 39 40 37 35 33 32 32 33 33 34 35 36 38 39 41 43 45 47 48 49 51 52 53 53 53
7 7 10 12 13 14 15 15 14 16 15 17 19 22 24 29 31 31 31 33 35 36 36 35 34 33 33 34 34 35 36 37 39 41 42 44 46 48 50 51 53 54 54 53
8 9 11 12 12 12 13 13 13 17 17 16 12 13 23 29 32 33 34 34 35 37 38 38 37 36 36 36 37 37 37 38 40 41 43 45 47 48 50 51 52 53 53 53
8 9 9 11 13 13 14 14 15 17 19 19 15 14 22 30 36 39 41 41 41 41 40 41 41 40 38 38 39 39 40 40 41 42 43 44 45 46 47 48 50 50 50 50
10 10 8 10 12 14 14 17 18 21 22 24 24 21 20 29 35 40 42 42 42 43 42 41 43 43 42 41 41 41 41 41 41 42 42 43 44 44 45 45 45 45 46 45
10 10 9 10 10 13 15 18 20 23 23 24 27 23 20 28 33 38 41 42 41 41 42 41 41 42 42 42 41 41 41 41 41 41 41 42 41 42 41 41 40 40 39 39
9 9 9 7 10 12 17 20 22 23 24 23 25 24 22 30 35 39 42 42 41 41 41 41 40 39 39 40 40 40 39 39 39 39 39 38 37 37 35 35 34 33 32 31
8 9 10 10 11 15 18 20 22 24 27 27 26 28 27 31 35 37 39 39 39 39 39 40 39 37 37 37 38 37 37 36 36 35 35 33 32 32 32 31 30 29 27 26
9 10 11 12 14 16 17 18 20 23 24 27 28 29 30 32 35 36 37 37 37 38 38 39 38 37 36 35 35 34 34 34 33 32 31 30 29 28 27 25 24 22 21 21
13 13 13 14 16 18 19 20 21 22 24 26 29 31 33 35 36 37 37 38 38 39 39 38 38 38 36 34 33 33 32 32 31 30 29 28 26 24 23 21 19 18 17 17
17 18 18 17 18 20 21 21 24 24 24 28 32 35 36 37 37 37 38 39 40 39 39 38 38 37 37 35 33 32 32 30 29 28 26 25 23 22 20 18 16 15 14 13
19 21 22 22 22 22 19 25 28 28 29 32 35 37 37 38 39 38 40 43 44 42 41 40 39 39 37 36 34 32 31 30 27 26 24 23 21 20 19 17 14 13 11 10
22 24 26 26 26 26 27 31 32 31 34 37 38 40 40 41 42 42 44 45 45 45 44 42 41 39 38 36 34 33 31 29 27 25 23 21 19 18 17 15 13 11 10 9
28 27 27 28 29 30 33 35 35 36 41 43 44 45 47 48 49 48 47 47 46 46 46 44 43 40 37 36 34 33 31 28 27 25 22 21 19 17 16 14 13 12 10 9
32 33 34 34 35 36 40 39 40 42 46 47 49 50 51 52 53 53 52 50 48 47 46 45 44 41 37 36 34 33 31 29 26 23 22 20 19 17 16 14 13 12 11 10
33 34 34 35 37 40 43 44 46 48 51 53 54 56 56 57 56 55 54 53 50 48 47 45 43 42 38 35 34 33 32 29 26 24 22 20 19 18 16 15 15 13 12 11
36 36 36 38 41 44 46 48 50 53 55 57 58 60 61 61 60 59 58 55 52 49 46 44 42 41 39 36 34 32 31 29 27 25 23 22 20 18 17 16 15 14 13 12
35 36 38 42 45 48 51 52 55 57 59 61 62 63 63 63 63 62 61 57 53 50 46 44 41 40 38 36 34 32 31 30 28 26 25 23 21 19 18 17 15 14 14 13
36 38 41 45 48 51 54 56 58 60 62 64 65 65 65 66 65 64 63 59 55 50 47 45 42 40 39 38 34 33 31 30 29 28 26 24 23 21 19 17 16 15 14 14
41 44 47 51 53 56 58 60 62 64 65 67 68 68 68 68 68 66 63 60 55 51 49 46 45 43 41 39 35 32 31 30 30 29 28 26 24 22 20 19 17 16 16 15
Wind_Direction
233 239 225 234 240 242 241 231 226 233 247 259 268 276 274 262 267 274 278 281 283 283 281 281 281 280 280 281 281 281 281 281 281 282 281 281 281 281 282 283 283 284 284 284
214 258 241 240 249 251 249 245 243 251 262 268 278 282 280 277 275 278 283 286 287 285 284 283 282 281 281 280 280 280 279 279 278 279 278 278 278 278 279 281 281 281 282 283
224 251 256 257 255 256 259 263 256 250 256 273 286 289 294 293 287 286 289 289 289 288 287 286 285 283 282 281 280 280 279 278 277 277 277 278 277 278 278 279 280 280 279 281
242 254 266 267 267 266 261 258 262 270 277 282 283 283 282 280 284 288 289 291 292 292 291 289 287 285 283 282 281 280 279 278 278 278 278 277 278 278 278 278 278 278 278 279
255 269 274 273 268 269 270 270 278 284 286 288 291 290 290 282 276 278 283 289 294 296 296 294 290 286 283 281 280 279 278 277 277 278 278 278 278 278 278 278 278 278 278 279
263 277 285 281 277 281 284 284 285 290 297 299 289 275 275 263 260 268 281 289 293 294 295 293 290 287 285 282 281 279 278 277 277 278 278 278 279 279 279 279 278 278 278 278
280 289 293 294 292 288 292 296 298 295 294 295 286 282 284 279 281 286 288 290 293 296 296 294 292 289 287 285 283 282 280 279 279 279 278 279 279 279 279 279 279 278 278 277
277 280 284 294 298 297 300 300 301 294 285 277 284 300 300 290 291 292 290 291 293 295 295 295 293 291 289 287 285 284 283 282 282 281 280 281 280 280 280 280 279 278 278 277
274 272 282 295 301 302 304 304 299 295 300 301 304 299 286 286 289 292 295 296 296 295 294 294 293 291 289 287 285 284 284 283 284 283 282 282 282 281 281 281 280 279 278 278
292 288 287 296 308 316 315 317 313 309 307 303 297 288 289 292 295 296 299 302 301 300 298 297 294 290 288 286 285 284 284 284 285 284 284 284 283 283 283 282 280 280 279 278
300 300 297 292 298 308 305 304 302 298 298 298 297 293 285 286 289 293 298 300 301 301 301 298 295 291 289 286 285 284 284 284 285 286 287 287 286 286 286 284 283 281 280 277
301 305 307 303 302 295 293 297 302 303 305 301 301 309 298 290 292 295 299 302 305 306 306 303 299 295 291 288 286 285 285 285 286 287 288 288 287 288 289 287 285 282 280 275
305 308 308 299 299 292 291 301 307 310 311 311 310 313 307 297 297 298 300 304 308 308 308 308 305 300 295 290 288 286 286 287 288 290 291 291 291 290 291 290 287 284 281 277
307 308 307 304 294 290 294 299 301 299 301 303 304 304 301 296 294 296 300 304 307 307 308 310 308 306 300 294 290 288 287 288 289 291 293 294 294 294 293 292 291 287 283 280
313 312 310 309 302 299 299 298 295 294 297 298 301 299 299 296 297 301 304 306 307 308 309 311 311 309 306 300 295 291 289 289 290 292 294 295 295 296 295 296 296 292 286 283
319 317 314 313 306 305 305 303 300 298 297 296 296 295 296 299 301 303 305 306 306 307 308 310 310 310 309 305 299 295 292 291 292 292 293 293 294 295 295 295 297 293 289 286
312 314 316 316 309 309 310 304 302 302 299 295 295 298 302 303 303 304 305 302 302 304 306 307 308 307 307 306 301 296 294 292 292 292 292 292 293 294 293 292 293 293 289 285
316 315 315 314 310 311 307 297 298 301 300 298 300 303 303 302 302 303 301 301 303 304 304 304 305 305 304 303 301 298 294 290 289 291 290 289 289 289 289 288 288 290 286 284
318 315 313 312 310 309 298 295 301 306 302 301 304 303 302 301 301 299 298 299 300 301 301 301 301 301 301 300 299 296 294 289 285 286 285 286 285 285 284 282 281 280 278 275
316 314 311 309 307 305 298 302 307 307 302 305 305 302 302 301 299 299 297 296 295 295 295 296 296 297 297 295 294 293 290 286 281 280 280 278 279 279 276 274 270 269 269 264
312 314 314 313 310 306 304 309 308 305 303 302 300 299 298 297 296 296 295 294 292 291 291 291 291 293 292 291 290 288 287 282 276 274 274 272 272 272 270 266 264 262 260 261
308 308 309 308 305 303 306 306 305 303 301 300 298 297 296 295 294 293 293 292 290 288 288 287 287 287 288 287 285 283 282 276 270 268 268 267 266 266 264 262 260 258 254 255
307 310 310 307 304 303 303 303 302 300 299 298 297 296 295 294 293 292 291 289 288 286 283 282 281 282 283 280 279 279 276 271 264 261 261 259 260 258 258 257 253 250 248 248
308 311 308 306 304 304 303 303 302 301 300 299 298 296 295 293 292 290 289 287 286 283 279 276 274 276 276 276 272 273 271 265 260 257 255 252 253 252 251 252 250 247 244 242
311 308 305 303 303 303 303 303 302 301 300 299 297 296 294 293 291 288 287 286 283 279 275 271 267 266 268 267 264 266 265 261 256 252 250 247 247 247 246 246 245 242 241 240
310 309 307 306 306 306 305 305 304 303 301 300 299 297 295 294 293 291 289 287 283 278 273 268 264 261 261 260 256 256 258 255 252 248 245 243 241 242 243 242 241 240 241 241
Height
5873 5877 5879 5881 5882 5882 5884 5888 5890 5892 5891 5886 5884 5885 5888 5888 5885 5881 5880 5880 5879 5878 5877 5876 5876 5874 5873 5872 5872 5872 5871 5869 5868 5868 5867 5866 5865 5864 5864 5863 5862 5860 5860 5859
5874 5874 5876 5876 5878 5880 5881 5883 5885 5886 5884 5880 5879 5879 5880 5879 5877 5874 5873 5872 5871 5870 5869 5868 5867 5866 5865 5864 5863 5863 5862 5860 5859 5858 5857 5857 5856 5855 5855 5854 5853 5852 5850 5849
5872 5873 5872 5875 5875 5877 5878 5880 5880 5879 5877 5875 5875 5874 5874 5873 5870 5866 5865 5864 5863 5862 5861 5860 5859 5858 5856 5855 5854 5853 5852 5851 5850 5849 5848 5847 5846 5845 5845 5844 5843 5841 5840 5839
5870 5870 5870 5872 5872 5873 5874 5873 5872 5872 5872 5872 5871 5869 5871 5869 5864 5860 5856 5855 5855 5854 5852 5851 5850 5848 5847 5846 5845 5844 5843 5841 5840 5839 5838 5836 5836 5835 5835 5834 5832 5831 5829 5828
5867 5867 5867 5868 5869 5868 5868 5868 5867 5867 5867 5866 5866 5864 5865 5865 5860 5854 5849 5848 5847 5846 5845 5843 5841 5840 5838 5837 5835 5834 5833 5832 5830 5829 5827 5826 5825 5824 5823 5822 5821 5820 5819 5817
5865 5865 5865 5865 5865 5864 5864 5864 5863 5863 5862 5862 5862 5860 5859 5857 5853 5849 5846 5844 5842 5840 5839 5836 5834 5832 5830 5828 5827 5825 5824 5823 5821 5819 5817 5816 5814 5813 5811 5810 5809 5808 5807 5806
5863 5863 5863 5862 5862 5861 5861 5861 5860 5861 5861 5859 5855 5854 5852 5848 5848 5847 5844 5840 5836 5833 5831 5829 5827 5825 5823 5820 5819 5817 5815 5814 5812 5810 5808 5806 5804 5802 5800 5798 5797 5795 5794 5794
5861 5862 5861 5860 5859 5858 5858 5858 5858 5857 5856 5856 5855 5853 5852 5846 5844 5842 5839 5836 5832 5828 5825 5823 5820 5818 5816 5813 5811 5809 5807 5805 5803 5800 5798 5796 5793 5790 5788 5786 5784 5782 5780 5780
5859 5859 5859 5858 5857 5856 5855 5854 5854 5853 5851 5851 5852 5853 5845 5840 5837 5834 5832 5829 5826 5822 5819 5815 5813 5810 5808 5805 5803 5800 5798 5796 5794 5791 5788 5785 5782 5779 5776 5773 5771 5769 5767 5766
5857 5857 5856 5856 5855 5854 5853 5852 5851 5849 5847 5846 5847 5847 5843 5835 5831 5827 5824 5821 5817 5814 5811 5807 5804 5801 5799 5796 5794 5791 5789 5786 5784 5781 5778 5774 5771 5768 5764 5761 5758 5756 5754 5752
5855 5854 5854 5853 5852 5852 5851 5850 5847 5846 5844 5842 5840 5842 5840 5833 5828 5823 5819 5815 5811 5806 5802 5799 5794 5791 5788 5786 5784 5781 5779 5776 5773 5770 5767 5763 5759 5756 5752 5749 5746 5743 5741 5739
5853 5852 5851 5851 5850 5848 5847 5846 5844 5842 5840 5837 5834 5836 5832 5827 5822 5817 5812 5807 5803 5798 5794 5789 5785 5781 5778 5775 5773 5771 5768 5766 5763 5760 5756 5752 5748 5745 5741 5738 5734 5731 5729 5727
5851 5850 5849 5848 5848 5846 5843 5842 5839 5837 5834 5831 5829 5830 5827 5821 5815 5811 5805 5800 5796 5791 5786 5781 5777 5772 5769 5765 5763 5761 5758 5756 5752 5749 5746 5742 5738 5735 5731 5728 5724 5721 5719 5719
5849 5848 5847 5846 5844 5841 5840 5838 5836 5834 5830 5827 5825 5822 5820 5815 5810 5804 5799 5794 5790 5784 5779 5774 5768 5764 5760 5757 5754 5751 5749 5746 5743 5740 5737 5733 5730 5726 5723 5720 5716 5714 5712 5712
5847 5846 5844 5842 5840 5838 5836 5834 5832 5829 5826 5822 5819 5815 5812 5806 5801 5797 5792 5787 5782 5777 5772 5767 5761 5756 5753 5749 5745 5743 5740 5738 5735 5732 5729 5726 5723 5719 5716 5713 5710 5708 5706 5705
5844 5843 5841 5839 5836 5833 5831 5828 5826 5823 5820 5815 5811 5807 5803 5798 5793 5788 5784 5779 5774 5769 5764 5759 5754 5750 5745 5742 5738 5735 5732 5730 5727 5725 5722 5719 5716 5714 5711 5709 5706 5704 5703 5702
5841 5839 5837 5835 5831 5828 5825 5822 5819 5816 5812 5807 5802 5799 5794 5790 5785 5781 5776 5771 5765 5761 5757 5752 5747 5743 5738 5735 5731 5728 5725 5723 5720 5718 5716 5713 5711 5708 5706 5704 5702 5701 5699 5699
5837 5834 5831 5829 5826 5823 5823 5815 5812 5809 5804 5799 5794 5791 5786 5781 5777 5773 5766 5760 5756 5752 5748 5744 5739 5735 5731 5727 5724 5721 5718 5716 5714 5712 5710 5708 5706 5704 5702 5700 5699 5698 5697 5696
5833 5829 5826 5823 5819 5817 5813 5806 5804 5801 5795 5790 5787 5782 5777 5772 5767 5763 5757 5751 5746 5742 5738 5734 5730 5726 5722 5719 5716 5714 5711 5709 5707 5706 5704 5702 5701 5699 5698 5697 5696 5695 5695 5694
5826 5824 5821 5817 5813 5809 5803 5799 5796 5793 5786 5780 5776 5770 5764 5759 5754 5751 5746 5741 5736 5731 5727 5723 5720 5717 5714 5711 5708 5706 5704 5702 5701 5700 5698 5697 5696 5695 5694 5693 5692 5692 5692 5692
5820 5815 5811 5807 5803 5799 5793 5791 5788 5784 5778 5771 5765 5759 5753 5747 5741 5736 5732 5728 5723 5719 5716 5712 5709 5706 5704 5701 5699 5697 5696 5694 5694 5693 5692 5692 5691 5690 5690 5689 5689 5689 5689 5689
5815 5811 5807 5802 5796 5792 5786 5782 5777 5772 5764 5757 5751 5745 5738 5733 5727 5721 5716 5712 5708 5705 5702 5699 5697 5695 5693 5691 5689 5688 5687 5686 5686 5686 5686 5686 5685 5685 5685 5685 5685 5685 5686 5686
5807 5804 5799 5794 5789 5782 5776 5771 5764 5757 5750 5743 5735 5728 5721 5715 5710 5704 5700 5696 5692 5689 5687 5685 5683 5682 5681 5680 5679 5678 5677 5677 5678 5678 5679 5679 5680 5680 5680 5680 5681 5682 5682 5683
5801 5797 5791 5784 5777 5771 5764 5758 5750 5742 5734 5726 5718 5710 5702 5696 5690 5685 5681 5678 5675 5673 5671 5669 5668 5668 5668 5667 5667 5667 5667 5668 5669 5670 5671 5672 5673 5674 5675 5675 5677 5678 5678 5679
5794 5788 5782 5774 5767 5760 5752 5744 5736 5727 5718 5709 5700 5691 5683 5675 5669 5664 5660 5657 5655 5654 5653 5652 5652 5653 5654 5653 5653 5655 5656 5658 5660 5661 5663 5665 5666 5668 5669 5670 5672 5673 5675 5676
5783 5776 5769 5761 5754 5746 5738 5728 5719 5709 5700 5690 5680 5672 5663 5653 5646 5641 5637 5635 5634 5633 5633 5633 5635 5636 5637 5638 5638 5642 5645 5647 5650 5652 5654 5657 5659 5661 5663 5665 5667 5668 5670 5672